Weather observations for the past three days for
Richmond, Richmond International Airport
Imperial (Metric)
Date Time (edt) Wind (mph) Vis. (mi.) Weather Sky Cond. Temperature (ºF) Relative Humidity Wind Chill (°F) Heat Index (°F) Pressure Precipitation (in)
Air Dwpt 6 hour altimeter (in) sea level (mb) 1 hr 3 hr 6 hr
Max. Min.
25 04:54 Calm 10.00 Fair CLR 66 57 73% 29.99 1015.9
25 03:54 Calm 10.00 Fair CLR 66 55.9 70% 29.98 1015.5
25 02:54 Calm 10.00 Fair CLR 66.9 57 71% 29.97 1015.0
25 01:54 Calm 10.00 Fair CLR 66.9 57 86 66 71% 29.96 1014.7
25 00:54 Calm 10.00 Fair CLR 69.1 57 66% 29.95 1014.5
24 23:54 N 6 10.00 Fair CLR 72 57 59% 29.93 1013.7
24 22:54 Calm 10.00 A Few Clouds FEW090 77 55.9 48% 79 29.92 1013.3
24 21:54 N 7 10.00 A Few Clouds FEW100 77 55.9 48% 79 29.9 1012.6
24 20:54 NE 8 10.00 A Few Clouds FEW080 FEW100 FEW300 81 55.9 42% 81 29.88 1011.9
24 18:54 N 17 10.00 A Few Clouds FEW085 FEW300 89.1 53.1 29% 87 29.82 1010.1
24 17:54 N 15 G 26 10.00 Partly Cloudy SCT080 SCT300 91.9 55.9 30% 90 29.8 1009.3
24 16:54 N 12 G 26 10.00 Partly Cloudy SCT085 SCT110 SCT300 93 55.9 29% 91 29.77 1008.4
24 15:54 N 21 G 28 10.00 Partly Cloudy and Breezy FEW090 SCT110 93.9 57.9 30% 93 29.77 1008.3
24 14:54 N 16 G 28 10.00 Partly Cloudy FEW075 SCT100 95 57 28% 94 29.77 1008.4
24 13:54 N 12 G 23 10.00 Partly Cloudy SCT060 SCT090 93 62.1 93 28.9 36% 94 29.78 1008.8
24 12:54 NW 8 G 25 10.00 Mostly Cloudy FEW013 BKN060 88 73 61% 96 29.79 1008.9
24 11:54 NW 8 G 21 10.00 Mostly Cloudy FEW013 BKN060 87.1 73 63% 95 29.79 1008.9
24 10:54 NW 8 G 21 10.00 Mostly Cloudy FEW013 BKN060 84.9 73 68% 92 29.78 1008.7
24 09:54 NW 9 G 21 10.00 Mostly Cloudy SCT013 BKN100 BKN250 84.9 73.9 70% 92 29.77 1008.2
24 08:54 SW 8 10.00 Mostly Cloudy FEW013 BKN100 BKN250 79 75 88% 83 29.75 1007.7
24 07:54 SW 8 10.00 Mostly Cloudy FEW013 BKN100 BKN250 79 75 81 79 88% 83 29.74 1007.4
24 06:54 SW 5 10.00 Mostly Cloudy FEW013 BKN090 BKN250 79 75 88% 83 29.72 1006.6
24 05:54 SW 7 10.00 Mostly Cloudy FEW010 BKN090 BKN250 79 73 82% 82 29.72 1006.5
24 04:54 S 7 10.00 Partly Cloudy SCT090 79 73 82% 82 29.7 1006.1
24 03:54 S 7 10.00 Partly Cloudy SCT100 79 73 82% 82 29.71 1006.2
24 02:54 SW 9 10.00 Mostly Cloudy BKN110 81 73 77% 86 29.73 1006.8
24 01:54 SW 9 10.00 Mostly Cloudy BKN110 81 72 74% 85 29.73 1007.1
24 00:54 SW 9 10.00 Mostly Cloudy BKN110 82 72 72% 87 29.74 1007.2
23 23:54 Vrbl 5 10.00 Partly Cloudy SCT110 79 73 82% 82 29.73 1007.1
23 22:54 SW 5 10.00 Partly Cloudy SCT110 79 73 82% 82 29.74 0.0
23 21:54 Vrbl 5 10.00 Mostly Cloudy SCT110 BKN180 79 73 82% 82 29.74 0.0
23 20:54 S 7 10.00 Mostly Cloudy SCT110 BKN180 81 75 82% 87 29.73 1007.0
23 19:54 S 9 10.00 Mostly Cloudy FEW050 SCT110 BKN140 84 75 99 80.1 74% 92 29.74 1007.2 0.14
23 18:54 S 10 10.00 Mostly Cloudy BKN110 84.9 75.9 75% 94 29.75 1007.7
23 17:54 S 12 10.00 Mostly Cloudy FEW050 SCT090 BKN110 82 75 79% 89 29.75 1007.7
23 16:54 SW 17 G 31 4.00 Overcast FEW044 SCT070 OVC095 82.9 73 72% 89 29.77 1008.4 0.14 0.14
23 15:54 SW 15 10.00 Mostly Cloudy SCT080 BKN120 BKN250 95 69.1 43% 101 29.77 1008.2
23 14:54 SW 17 G 26 10.00 Mostly Cloudy FEW060 BKN250 98.1 68 38% 103 29.78 1008.6
23 13:54 SW 18 G 26 10.00 Mostly Cloudy SCT050 BKN250 97 70 98.1 82 42% 104 29.81 1009.6
23 12:54 SW 15 G 28 10.00 Mostly Cloudy SCT050 BKN250 95 71.1 46% 102 29.83 1010.5
23 11:54 SW 12 G 25 10.00 Partly Cloudy FEW050 SCT250 95 71.1 46% 102 29.85 1011.0
23 10:54 SW 12 G 24 10.00 A Few Clouds FEW050 FEW250 93 72 50% 101 29.87 1011.7
23 09:54 SW 16 10.00 A Few Clouds FEW250 89.1 72 57% 96 29.88 1012.1
23 08:54 SW 16 G 25 10.00 A Few Clouds FEW060 FEW250 84.9 73 68% 92 29.89 1012.5
23 07:54 S 16 10.00 A Few Clouds FEW060 FEW250 82 72 82 78.1 72% 87 29.91 1013.0
23 06:54 SW 13 10.00 A Few Clouds FEW250 80.1 71.1 74% 84 29.92 1013.3
23 05:54 SW 12 10.00 A Few Clouds FEW250 79 70 74% 82 29.92 1013.5
23 04:54 S 10 10.00 Fair CLR 80.1 70 71% 83 29.92 1013.5
23 03:54 SW 15 10.00 Fair CLR 81 69.1 67% 84 29.93 1013.6
23 02:54 SW 10 10.00 A Few Clouds FEW300 80.1 68 67% 83 29.93 1013.7
23 01:54 S 8 10.00 A Few Clouds FEW300 80.1 68 91 78.1 67% 83 29.94 1013.9
23 00:54 S 9 10.00 A Few Clouds FEW300 80.1 69.1 69% 83 29.94 1014.0
22 23:54 S 8 10.00 Fair CLR 81 69.1 67% 84 29.95 1014.4
22 22:54 S 7 10.00 Fair CLR 80.1 68 67% 83 29.95 1014.5
22 21:54 S 7 10.00 Fair CLR 81 68 65% 84 29.95 1014.4
22 20:54 S 6 10.00 Partly Cloudy SCT250 86 66 51% 88 29.94 1014.1
22 19:54 S 8 10.00 A Few Clouds FEW050 FEW250 91 66 99 91 44% 94 29.94 1014.0
22 18:54 SW 12 10.00 A Few Clouds FEW040 FEW200 96.1 62.1 32% 97 29.94 1014.0
22 17:54 SW 10 10.00 A Few Clouds FEW030 98.1 61 29% 99 29.94 1014.2
22 16:54 S 9 10.00 A Few Clouds FEW030 99 62.1 30% 100 29.96 1014.8
22 15:54 SW 8 G 18 10.00 A Few Clouds FEW030 99 62.1 30% 100 29.98 1015.5
22 14:54 S 10 10.00 Fair CLR 98.1 62.1 31% 99 30 1016.2
22 13:54 S 12 10.00 Fair CLR 97 64 98.1 77 34% 99 30.03 1017.1
22 12:54 S 9 10.00 Fair CLR 95 64.9 37% 98 30.05 1017.7
22 11:54 S 10 10.00 Fair CLR 93 66 41% 96 30.07 1018.6
22 10:54 S 12 10.00 Fair CLR 90 66.9 47% 93 30.08 1018.9
22 09:54 SW 8 10.00 Fair CLR 88 66.9 50% 91 30.1 1019.4
22 08:54 SW 8 10.00 Fair CLR 82 68 63% 85 30.11 1020.0
22 07:54 SW 9 10.00 Fair CLR 77 68 77 71.1 74% 79 30.12 1020.1
22 06:54 S 6 10.00 Fair CLR 73 68 84% 30.12 1020.0
22 05:54 S 6 10.00 Fair CLR 71.1 66 84% 30.11 1019.9
Date Time (edt) Wind (mph) Vis. (mi.) Weather Sky Cond. Air Dwpt Max. Min. Relative Humidity Wind Chill (°F) Heat Index (°F) altimeter (in) sea level (mb) 1 hr 3 hr 6 hr
6 hour
Temperature (ºF) Pressure Precipitation (in)